Вернуться в каталог

COSMOS 1930

АктивенВоенныеLEO
NORAD 18943·PAYLOAD·🇷🇺 Russia

Запущен Mar 11, 1988 с Plesetsk Cosmodrome

Loading…

Ближайшие Пролёты (ближайшие 24 часа)

TLE

СвежийSource: Space-Track

Эпоха: Sep 14, 2026, 13:49 UTC

1 18943U 88016G   26257.57602622 -.00000002  00000-0  85419-4 0  9994
2 18943  74.0063 311.7196 0030102 322.9954 208.1793 12.56642226766662

Отслеживайте COSMOS 1930 в реальном времени с AllMySat

Download on the App Store